Wind_Speed
128 128 131 131 131 132 133 136 134 127 135 145 140 137 134 132 126 124 125 118 117 115 110 108 102 93 90 89 89 84 77 81 81 78 77 73 68 61 60 58 56 53 48 47
122 126 127 127 138 140 139 137 134 131 136 146 143 140 139 141 131 131 127 123 120 119 113 108 105 100 97 95 90 83 81 75 67 65 65 62 64 61 58 56 57 56 55 54
121 120 121 126 127 127 126 128 130 124 129 137 143 146 146 149 141 141 136 130 131 122 115 111 106 99 97 98 98 95 90 83 79 76 67 60 57 60 63 61 59 60 58 57
116 119 118 118 120 120 122 123 125 122 125 132 140 141 143 150 153 149 143 141 135 117 112 112 110 100 100 98 96 97 95 92 89 87 84 79 74 74 68 63 63 64 63 59
117 118 120 117 118 118 117 118 115 117 116 125 133 137 142 146 152 148 148 145 122 122 120 114 111 108 105 103 102 96 94 94 92 92 88 85 84 77 73 70 68 69 67 65
106 105 107 109 111 111 112 109 111 111 109 114 124 125 130 143 134 143 139 134 131 130 121 121 121 114 112 110 106 102 101 95 92 92 92 88 84 79 81 75 72 70 68 69
101 101 101 101 100 101 99 96 101 104 98 108 114 114 117 115 123 120 110 117 116 114 124 128 126 119 116 114 114 109 102 101 97 93 91 87 85 90 83 78 75 72 69 73
96 96 96 94 92 92 91 90 93 94 89 96 97 98 103 104 113 111 104 99 94 95 105 113 105 102 106 109 103 98 104 106 101 92 88 86 86 82 84 81 78 77 71 72
89 90 90 88 87 88 86 86 87 87 83 79 85 90 96 101 97 100 96 93 92 86 86 82 80 82 68 72 90 86 88 84 89 85 88 85 76 82 84 77 73 71 70 63
81 80 81 80 81 83 81 81 81 82 74 78 82 84 89 94 91 88 81 84 81 64 63 66 79 69 67 70 69 74 73 76 71 63 68 62 57 58 53 57 54 61 54 48
74 76 76 76 78 78 75 77 75 74 71 79 86 88 86 84 81 73 72 80 80 76 77 82 65 69 72 64 54 61 63 61 62 60 62 55 55 54 47 53 49 49 48 53
70 71 71 70 72 71 71 70 71 68 75 81 83 80 84 79 67 69 76 77 83 85 80 64 67 60 55 56 62 61 52 48 46 52 59 63 56 53 51 51 51 49 53 58
63 63 64 65 66 65 67 68 69 67 75 81 83 86 86 73 68 83 78 76 78 80 65 57 45 49 48 42 40 46 54 55 60 60 53 48 49 51 52 50 52 55 59 62
58 59 60 61 62 64 67 68 68 70 79 85 87 88 71 68 68 71 70 76 72 68 64 67 60 55 47 50 50 58 62 63 60 59 50 48 47 50 55 60 62 60 64 65
55 56 57 60 62 62 64 65 68 79 86 89 89 74 81 81 82 86 86 82 73 68 65 70 73 68 53 54 62 65 65 60 59 51 54 50 52 55 57 61 66 70 66 67
52 54 56 58 61 62 63 70 81 85 89 91 88 85 90 87 91 94 88 77 74 62 64 67 66 70 71 65 65 65 58 56 54 48 49 55 55 52 53 59 60 66 71 69
51 53 54 57 57 59 67 79 85 94 97 98 92 100 100 88 93 88 82 77 79 86 89 85 76 66 70 60 57 61 63 63 59 60 57 56 57 61 62 62 65 71 74 73
50 51 53 54 56 62 75 84 97 101 106 104 101 104 112 102 102 85 84 87 85 83 85 82 90 81 74 67 56 56 57 64 68 76 61 65 70 68 69 72 75 73 73 74
48 51 53 56 60 70 81 91 105 106 108 103 102 107 105 101 94 90 97 92 97 97 80 89 87 80 77 57 64 69 69 71 74 71 68 72 73 76 79 79 84 83 84 88
47 49 54 59 71 79 87 103 110 110 112 106 108 103 103 102 100 87 98 102 95 87 86 90 90 78 68 66 73 81 82 75 76 73 74 78 77 79 82 85 85 87 88 92
45 49 55 64 70 81 99 109 109 107 106 108 108 107 113 106 106 91 79 86 94 99 99 100 100 81 74 71 79 78 82 79 75 76 80 78 83 87 89 91 90 91 96 96
50 55 62 71 77 88 102 103 109 107 112 109 112 116 115 115 114 107 100 91 85 89 87 87 89 87 86 88 86 83 84 79 84 82 86 88 88 89 96 99 102 103 108 104
51 58 66 72 79 87 93 115 116 115 109 108 107 112 116 112 115 117 114 101 99 97 93 86 82 86 85 86 86 86 83 84 85 88 88 90 90 94 96 97 101 107 106 105
49 56 62 72 76 83 93 105 106 108 114 108 107 105 112 114 102 101 102 100 100 102 92 92 92 92 92 94 93 95 89 90 95 97 95 93 95 101 104 105 108 110 109 108
49 55 61 64 73 81 86 98 104 106 111 104 106 110 108 111 114 110 110 108 106 99 94 99 95 93 100 103 103 103 106 102 103 105 104 104 101 103 108 111 113 111 109 108
45 48 54 61 71 77 82 94 104 103 110 107 101 105 111 110 117 120 122 118 111 108 108 98 93 108 113 112 108 104 103 103 104 105 104 105 107 108 110 114 114 114 112 113
42 49 59 61 65 70 80 92 103 104 107 109 104 104 96 101 97 103 115 109 102 105 113 114 115 112 106 103 104 105 104 102 104 104 103 105 106 108 113 115 114 114 116 119
Wind_Direction
247 250 250 250 250 248 247 247 245 245 250 248 247 246 249 249 246 245 247 247 250 250 245 244 242 241 247 249 251 253 254 260 264 267 268 270 270 272 274 274 276 280 282 287
250 250 250 249 251 251 251 251 249 249 250 251 249 247 247 249 247 247 245 246 246 248 249 246 247 243 248 249 251 251 253 251 256 261 263 263 265 266 270 273 276 282 285 288
251 250 251 251 252 252 251 251 248 247 249 249 249 249 245 247 245 245 245 243 244 244 247 249 249 248 249 250 252 254 253 253 256 259 258 259 261 263 269 277 280 281 285 287
252 254 253 254 255 254 252 248 246 247 245 245 246 246 247 245 247 243 245 244 243 245 245 249 251 250 250 250 250 253 254 256 258 260 263 265 268 271 271 272 276 282 282 286
252 253 253 251 252 250 248 248 247 246 244 244 245 245 247 247 246 247 245 247 244 245 246 247 248 251 251 251 252 254 256 256 257 260 262 266 268 271 273 276 276 279 282 285
250 249 249 248 248 247 247 247 245 246 242 241 242 242 245 247 250 249 249 248 248 245 244 246 246 247 249 253 255 257 258 259 260 261 263 265 268 271 271 274 277 279 282 285
248 248 248 249 249 248 247 245 244 242 239 238 241 240 240 241 242 246 245 246 248 247 246 247 247 249 249 250 253 256 257 259 260 262 265 268 270 271 275 276 278 282 286 289
247 248 248 248 248 247 245 243 241 240 236 237 237 235 235 235 235 235 237 238 238 234 237 242 242 242 245 247 249 253 256 258 261 264 266 269 274 275 276 278 280 281 285 288
246 246 246 245 244 244 242 240 239 238 233 231 231 230 231 230 231 231 231 228 229 228 229 231 234 236 233 235 245 245 249 252 258 261 263 266 265 271 276 278 283 285 285 287
245 244 243 242 241 240 239 237 235 233 227 223 221 221 224 229 226 229 227 222 224 219 211 207 223 229 229 232 238 245 247 252 254 252 257 264 264 266 272 279 269 283 283 266
241 241 240 239 238 237 235 233 230 227 218 216 215 217 219 223 222 219 213 207 204 200 205 210 226 236 228 236 239 246 248 247 253 251 252 251 263 264 265 270 277 273 269 261
239 237 236 234 233 232 229 227 224 217 211 211 214 214 212 212 210 204 204 205 206 210 218 220 219 238 234 239 239 242 240 245 236 232 240 253 262 260 263 265 270 265 256 258
233 231 230 228 227 224 221 219 216 207 204 205 205 205 206 204 202 193 199 206 212 216 217 215 233 224 210 217 225 227 230 232 229 245 252 253 250 255 260 258 256 252 254 260
227 226 225 223 220 217 216 213 207 199 198 198 196 203 198 184 188 191 196 203 208 211 211 215 219 212 223 221 217 219 225 224 237 245 255 252 245 245 244 245 252 250 254 260
223 219 219 216 214 213 212 208 197 195 195 193 199 191 184 181 185 195 197 203 201 205 207 217 219 225 212 215 215 216 220 234 248 254 242 242 245 243 242 245 249 252 257 261
218 215 213 212 209 207 204 194 194 192 189 188 191 179 179 184 190 192 196 196 199 194 198 207 218 211 214 220 218 225 233 241 252 236 241 240 246 249 247 247 249 255 257 259
214 211 208 208 205 201 198 195 191 189 188 187 190 182 180 186 198 192 193 195 197 200 205 214 210 217 224 231 231 238 234 250 234 237 239 241 246 250 253 254 256 256 256 260
209 208 204 205 200 196 195 191 191 192 192 191 192 187 186 193 196 197 200 202 201 209 208 215 218 227 230 231 235 239 243 240 241 239 243 240 244 247 249 251 253 255 257 262
207 205 200 198 193 193 195 191 191 192 196 194 192 186 190 191 197 200 206 201 202 200 211 215 219 223 228 226 223 230 231 234 237 242 246 247 249 247 253 256 257 259 262 267
204 201 200 194 191 193 193 189 197 200 199 198 191 186 189 192 194 201 208 201 204 208 216 216 218 224 225 214 222 225 229 235 242 249 246 248 249 249 251 253 254 259 266 274
201 196 195 196 193 191 192 196 199 204 200 199 192 190 192 193 195 196 204 207 212 215 218 219 221 221 227 226 227 231 235 243 248 250 251 247 254 254 255 257 260 260 278 285
197 192 190 192 193 194 195 199 202 203 201 199 195 194 194 196 194 200 204 207 212 213 213 215 216 218 217 221 228 237 241 249 253 256 254 255 257 256 255 256 258 264 277 284
195 194 193 193 194 194 197 197 202 201 205 203 202 198 199 200 204 208 209 209 213 214 214 215 216 219 223 228 235 241 248 252 254 251 253 253 259 263 265 266 269 274 280 282
194 198 196 195 193 194 196 200 203 204 208 206 205 207 205 207 206 207 206 209 213 215 212 214 219 223 226 231 237 241 248 251 252 254 254 256 261 262 265 266 270 275 280 283
196 199 200 196 192 193 194 199 205 207 208 210 209 211 211 207 208 206 206 209 212 212 215 214 222 230 234 237 239 241 246 249 251 253 256 258 260 261 264 270 276 281 284 285
198 198 202 198 194 194 193 196 203 207 211 212 214 215 214 213 212 211 213 213 215 218 222 228 232 234 237 240 243 247 248 249 252 254 257 260 264 267 271 274 277 279 282 286
192 193 200 202 199 194 196 197 203 205 209 212 215 218 221 219 221 218 217 220 223 224 226 229 232 234 237 242 243 246 247 249 251 255 263 267 271 273 275 279 283 284 285 285
Height
10418 10428 10435 10441 10444 10451 10465 10480 10501 10525 10493 10478 10508 10523 10544 10562 10587 10599 10601 10619 10627 10639 10662 10672 10685 10701 10701 10703 10708 10717 10723 10730 10737 10735 10740 10747 10749 10748 10750 10756 10756 10761 10762 10762
10385 10395 10403 10406 10410 10416 10426 10440 10463 10482 10463 10460 10489 10508 10516 10518 10551 10563 10581 10597 10605 10612 10627 10646 10660 10684 10684 10688 10691 10700 10705 10717 10722 10723 10726 10730 10734 10735 10738 10743 10744 10745 10747 10747
10351 10359 10366 10372 10375 10381 10389 10401 10419 10443 10436 10450 10453 10462 10483 10484 10517 10521 10540 10565 10572 10592 10608 10622 10643 10661 10668 10671 10677 10677 10685 10696 10704 10708 10710 10716 10719 10720 10725 10728 10730 10726 10731 10730
10316 10323 10330 10335 10341 10347 10353 10361 10376 10398 10411 10413 10413 10427 10440 10455 10462 10489 10509 10528 10548 10588 10595 10600 10616 10640 10642 10649 10654 10658 10669 10679 10685 10687 10693 10699 10703 10705 10712 10715 10716 10713 10712 10715
10281 10288 10293 10296 10304 10313 10322 10329 10347 10353 10385 10387 10387 10401 10414 10431 10439 10466 10487 10507 10557 10555 10568 10589 10597 10607 10614 10621 10627 10639 10651 10659 10663 10668 10676 10684 10688 10691 10696 10700 10698 10699 10700 10697
10248 10254 10259 10266 10273 10284 10291 10306 10315 10322 10351 10356 10357 10385 10400 10409 10431 10443 10464 10493 10498 10523 10563 10562 10569 10580 10586 10599 10611 10621 10628 10638 10646 10651 10655 10667 10678 10672 10676 10684 10686 10683 10684 10680
10215 10221 10229 10236 10246 10254 10263 10274 10279 10295 10319 10318 10338 10360 10370 10391 10397 10422 10445 10452 10474 10521 10516 10525 10535 10549 10566 10579 10587 10599 10610 10617 10626 10633 10640 10653 10653 10649 10662 10665 10666 10667 10670 10663
10187 10194 10201 10211 10219 10224 10234 10245 10254 10268 10293 10302 10320 10339 10354 10368 10375 10387 10411 10438 10468 10468 10489 10500 10511 10522 10538 10558 10567 10581 10589 10596 10606 10615 10623 10633 10634 10633 10636 10643 10647 10651 10656 10649
10161 10167 10176 10186 10194 10198 10209 10220 10231 10247 10267 10296 10301 10311 10325 10338 10358 10375 10397 10417 10433 10450 10467 10479 10487 10507 10530 10538 10548 10564 10574 10576 10588 10599 10609 10617 10610 10614 10621 10625 10630 10630 10634 10632
10134 10143 10150 10160 10169 10175 10188 10199 10214 10226 10259 10271 10278 10294 10308 10323 10343 10365 10393 10408 10420 10437 10451 10469 10481 10496 10514 10520 10533 10545 10555 10564 10573 10580 10586 10598 10595 10597 10601 10615 10607 10618 10616 10617
10111 10119 10129 10138 10145 10156 10169 10179 10196 10216 10241 10249 10261 10275 10295 10314 10333 10356 10381 10387 10405 10427 10438 10450 10474 10490 10502 10510 10520 10531 10542 10548 10558 10566 10576 10579 10577 10579 10591 10589 10595 10598 10599 10601
10090 10099 10109 10118 10126 10138 10149 10165 10180 10205 10218 10234 10248 10268 10283 10304 10331 10350 10366 10387 10399 10416 10429 10451 10467 10477 10489 10501 10507 10518 10528 10538 10543 10548 10557 10558 10567 10569 10573 10575 10578 10582 10585 10584
10071 10081 10090 10100 10110 10124 10135 10149 10168 10192 10210 10223 10239 10256 10272 10300 10325 10341 10358 10374 10390 10405 10427 10444 10455 10465 10480 10488 10498 10504 10514 10521 10528 10534 10540 10545 10551 10554 10556 10560 10564 10567 10570 10570
10056 10066 10075 10087 10098 10112 10123 10139 10159 10182 10197 10215 10230 10250 10276 10296 10317 10337 10351 10366 10381 10396 10410 10426 10443 10456 10466 10475 10483 10492 10501 10506 10516 10520 10526 10530 10537 10539 10542 10546 10549 10553 10555 10554
10043 10054 10064 10076 10087 10101 10115 10133 10152 10168 10185 10206 10222 10251 10270 10291 10309 10324 10337 10351 10369 10386 10399 10414 10429 10441 10454 10463 10471 10481 10488 10497 10501 10510 10509 10515 10519 10525 10529 10532 10534 10536 10538 10539
10032 10044 10055 10066 10080 10093 10108 10126 10142 10159 10179 10197 10221 10247 10263 10282 10295 10306 10325 10342 10360 10377 10394 10401 10414 10429 10441 10449 10462 10470 10476 10483 10488 10493 10497 10502 10509 10514 10517 10518 10520 10523 10523 10523
10024 10035 10048 10059 10075 10090 10105 10123 10140 10155 10172 10191 10211 10235 10251 10271 10280 10301 10316 10332 10347 10365 10377 10388 10405 10418 10427 10438 10449 10456 10464 10470 10476 10480 10485 10490 10495 10497 10500 10503 10505 10505 10504 10505
10018 10030 10042 10055 10069 10085 10099 10115 10127 10144 10160 10177 10193 10218 10238 10256 10275 10296 10307 10321 10338 10354 10371 10385 10395 10403 10412 10424 10437 10442 10450 10457 10460 10465 10469 10474 10477 10483 10486 10487 10486 10486 10488 10488
10012 10024 10037 10050 10063 10078 10090 10109 10121 10132 10146 10163 10185 10205 10232 10253 10271 10284 10293 10315 10321 10342 10355 10367 10377 10389 10401 10415 10426 10431 10436 10441 10445 10449 10455 10459 10464 10469 10469 10468 10467 10468 10469 10470
10007 10020 10032 10045 10056 10069 10086 10104 10107 10119 10135 10156 10183 10204 10227 10244 10262 10275 10286 10303 10320 10334 10342 10351 10366 10381 10392 10401 10407 10414 10420 10427 10431 10437 10440 10444 10447 10449 10449 10448 10449 10453 10454 10454
10003 10014 10025 10035 10049 10063 10078 10088 10100 10111 10136 10155 10183 10201 10217 10237 10251 10269 10279 10295 10309 10320 10335 10346 10357 10372 10380 10388 10396 10401 10407 10410 10415 10420 10424 10426 10431 10432 10433 10433 10433 10433 10433 10428
9992 10002 10013 10024 10038 10052 10065 10082 10095 10113 10131 10155 10180 10198 10210 10225 10243 10252 10267 10282 10296 10308 10325 10335 10349 10358 10367 10373 10376 10380 10386 10390 10396 10404 10407 10410 10412 10415 10415 10416 10415 10413 10411 10408
9988 9996 10004 10015 10025 10038 10057 10075 10088 10111 10127 10152 10170 10190 10205 10217 10230 10244 10257 10273 10283 10302 10313 10330 10337 10344 10353 10357 10363 10369 10374 10379 10383 10387 10390 10391 10392 10392 10393 10395 10395 10393 10391 10388
9986 9994 10003 10010 10023 10039 10056 10075 10093 10113 10124 10143 10163 10179 10198 10214 10226 10240 10252 10264 10277 10286 10305 10323 10323 10330 10337 10341 10349 10357 10361 10366 10367 10368 10372 10373 10375 10376 10374 10374 10372 10372 10371 10367
9981 9990 10001 10017 10029 10040 10058 10079 10091 10104 10121 10139 10159 10169 10184 10203 10213 10230 10243 10254 10261 10283 10300 10308 10310 10313 10316 10321 10332 10340 10343 10346 10349 10352 10355 10356 10356 10355 10354 10353 10353 10354 10351 10347
9981 9993 10003 10014 10025 10038 10057 10073 10090 10106 10122 10133 10145 10159 10175 10190 10206 10220 10233 10247 10261 10275 10281 10287 10294 10299 10300 10307 10317 10322 10327 10331 10335 10335 10337 10337 10338 10340 10338 10334 10335 10332 10329 10324
9982 9990 9998 10009 10023 10041 10054 10067 10082 10100 10113 10126 10140 10151 10164 10187 10200 10219 10233 10247 10253 10260 10268 10275 10279 10283 10288 10296 10302 10306 10311 10315 10316 10318 10319 10318 10317 10316 10315 10314 10313 10309 10303 10297